{"data":{"norad_id":65527,"epoch":"2026-05-25T03:41:38.391648Z","epoch_age_seconds":55050,"freshness":"FRESH","line1":"1 65527U 25200H   26145.15391657  .00000598  00000+0  45492-4 0  9998","line2":"2 65527  97.4500 214.7569 0001624 147.9420 212.1906 15.05649186 40635","mean_motion":15.05649186,"eccentricity":0.0001624,"inclination_deg":97.45,"raan_deg":214.7569,"arg_perigee_deg":147.942,"mean_anomaly_deg":212.1906,"bstar":4.5492e-5,"rev_number":4063,"period_min":95.639808621396,"perigee_km":548.38860043883,"apogee_km":550.63870137024,"semimajor_km":6927.6506509045,"source":"CELESTRAK","updated_at":"2026-05-25T13:38:20.847577Z"}}